Lid_Strength_Index
2 3 3 3 3 3 2 2 4 6 5 4 5 7 8 10 10 10 11 9 7 6 5 5 4 4 3 3 3 3 4 4 5 5 5 5 5 6
2 2 2 2 2 2 2 3 3 4 6 4 6 9 11 11 11 11 11 10 9 7 6 5 5 4 4 4 4 4 4 4 5 5 5 5 6 6
2 2 2 2 2 2 3 3 3 4 5 5 8 11 12 12 12 12 11 11 11 9 8 6 5 4 4 5 4 4 5 5 5 5 5 5 6 6
3 3 3 3 3 3 3 3 4 3 5 5 12 14 13 13 13 13 12 12 11 9 7 6 5 5 5 5 5 5 5 6 6 6 6 6 6 6
3 4 3 3 4 4 4 4 4 4 4 5 10 14 13 13 14 13 14 13 11 10 8 7 6 5 5 5 5 5 6 6 7 7 7 6 6 6
3 3 3 4 4 4 4 4 5 5 8 10 14 15 15 15 15 15 15 14 13 11 10 9 8 7 6 6 6 6 6 6 7 7 7 7 7 7
5 5 5 7 10 7 6 6 8 10 14 13 14 15 14 15 15 15 15 14 13 13 13 12 12 11 10 8 8 8 7 7 7 7 7 7 7 7
7 9 11 13 11 11 10 9 8 9 13 13 14 13 14 14 14 15 15 15 15 13 13 13 12 12 11 11 9 8 7 7 7 7 8 8 8 8
9 11 12 12 11 11 10 10 11 9 9 11 12 12 13 13 14 14 14 13 13 13 13 13 12 12 11 10 8 8 8 8 8 8 8 8 8 8
11 11 12 12 12 11 12 13 13 13 12 12 12 12 13 13 13 12 12 13 13 13 13 13 12 12 11 11 8 8 8 8 8 8 8 9 8 8
13 12 12 12 11 10 13 14 14 14 11 10 10 10 10 11 11 12 13 13 14 14 13 15 15 14 14 16 14 9 9 9 9 9 9 9 8 8
14 13 13 13 11 11 13 13 14 14 14 14 14 12 12 11 11 12 12 13 13 14 14 16 16 16 17 16 15 14 14 11 10 10 9 9 9 12
14 14 14 11 11 11 11 13 13 13 13 13 13 13 13 13 13 12 12 12 13 13 12 13 16 17 19 18 15 15 15 14 14 13 11 10 10 10
14 14 13 11 11 11 12 11 11 13 13 13 13 14 14 14 13 13 13 12 12 14 13 12 14 17 19 15 18 16 16 15 14 14 14 12 11 10
13 12 11 11 11 11 11 11 13 13 13 14 14 15 15 14 13 13 13 13 13 13 13 13 15 14 15 14 18 17 15 15 15 15 15 14 14 14
13 13 12 12 12 13 14 14 14 14 14 14 15 15 14 16 15 14 14 14 15 15 13 13 13 14 15 15 15 17 17 16 16 16 16 16 14 14
14 14 14 14 15 15 14 14 15 15 16 17 16 15 15 15 15 14 14 15 16 16 15 14 13 13 14 16 18 17 17 17 16 16 17 17 17 15
15 15 16 16 16 15 16 16 16 15 15 14 15 15 15 15 16 15 16 18 18 16 16 15 15 15 16 17 14 17 19 19 18 17 18 19 21 17
16 16 16 16 16 17 17 16 17 17 16 16 16 16 16 16 16 16 16 16 16 16 16 15 16 19 22 23 19 13 16 20 20 21 20 20 19 17
16 17 17 16 16 17 17 17 17 16 16 16 16 16 16 16 16 16 16 17 17 17 19 20 21 21 22 21 23 19 15 21 22 23 22 21 18 14
20 20 20 19 19 19 18 18 18 18 18 18 18 17 17 17 18 18 17 18 20 22 23 22 19 19 21 23 25 26 21 15 17 21 21 21 22 20
23 23 22 22 22 21 21 20 20 20 20 20 20 21 21 20 20 20 20 20 21 21 21 20 21 25 26 25 27 26 24 22 18 15 15 15 19 22
24 24 24 23 22 23 22 22 22 22 22 22 22 23 23 24 23 22 22 22 24 25 26 26 26 23 25 25 26 26 27 26 24 22 21 14 13 12